DW7121 Weather Reports


Display with metric or nautical units.
time (UTC)temp
F
wind
direction
speed
MPH
gust
MPH
rain 1hr
in
rain 24hr
in
rain mn
in
humidity
%
barometer
mb
20220525151525 59 260 0.0 0.0 0.00 0.00 0.00 96 1011.2
20220525150029 59 245 0.0 0.0 0.00 0.00 0.00 96 1011.1
20220525144522 60 291 0.0 3.0 0.00 0.00 0.00 96 1010.9
20220525143021 59 159 0.0 0.0 0.00 0.00 0.00 99 1010.8
20220525141519 58 150 0.0 0.0 0.00 0.00 0.00 99 1010.8
20220525140021 57 134 0.0 0.0 0.00 0.00 0.00 99 1010.8
20220525134519 57 270 0.0 0.0 0.00 0.00 0.00 99 1010.7
20220525133017 57 270 0.0 0.0 0.00 0.00 0.00 99 1010.6
20220525131516 57 270 0.0 0.0 0.00 0.00 0.00 99 1010.5
20220525130015 57 270 0.0 0.0 0.00 0.00 0.00 99 1010.3
20220525124514 57 270 0.0 0.0 0.00 0.00 0.00 99 1010.3
20220525123014 57 270 0.0 0.0 0.00 0.00 0.00 98 1010.5
20220525121513 57 270 0.0 1.0 0.00 0.00 0.00 98 1010.2
20220525120012 57 270 0.0 0.0 0.00 0.00 0.00 98 1010.2
20220525114512 57 270 0.0 0.0 0.00 0.00 0.00 98 1010.3
20220525113011 57 270 0.0 0.0 0.00 0.00 0.00 98 1010.4
20220525111510 57 270 0.0 0.0 0.00 0.00 0.00 98 1010.2
20220525110013 57 270 0.0 0.0 0.00 0.00 0.00 98 1010.2
20220525104508 57 270 0.0 0.0 0.00 0.00 0.00 98 1010.3
20220525103009 57 267 0.0 0.0 0.00 0.00 0.00 98 1010.3
20220525101507 57 211 0.0 0.0 0.00 0.00 0.00 98 1010.3
20220525100007 57 165 0.0 0.0 0.00 0.00 0.00 98 1010.3
20220525094506 57 165 0.0 0.0 0.00 0.00 0.00 98 1010.3
20220525093008 57 165 0.0 0.0 0.00 0.00 0.00 98 1010.4
20220525091504 56 165 0.0 0.0 0.00 0.00 0.00 98 1010.3
20220525090005 56 139 0.0 0.0 0.00 0.00 0.00 98 1010.4
20220525084502 56 139 0.0 0.0 0.00 0.00 0.00 98 1010.4
20220525083001 57 138 0.0 0.0 0.00 0.00 0.00 98 1010.4
20220525081603 57 260 0.0 0.0 0.00 0.00 0.00 97 1010.5
20220525080106 57 260 0.0 0.0 0.00 0.00 0.00 97 1010.6
20220525074557 57 262 0.0 0.0 0.00 0.00 0.00 97 1010.6
20220525073057 57 262 0.0 0.0 0.00 0.00 0.00 98 1010.8
20220525071601 57 262 0.0 0.0 0.00 0.00 0.00 98 1010.9
20220525070058 57 262 0.0 0.0 0.00 0.00 0.00 98 1010.9
20220525064552 57 262 0.0 0.0 0.00 0.00 0.00 98 1010.9
20220525063049 57 165 0.0 0.0 0.00 0.00 0.00 99 1011.0
20220525061549 56 165 0.0 0.0 0.00 0.00 0.00 99 1010.9
20220525060048 56 165 0.0 0.0 0.00 0.00 0.00 98 1011.0
20220525054548 56 165 0.0 0.0 0.00 0.00 0.00 98 1011.0
20220525053053 56 165 0.0 0.0 0.00 0.00 0.00 98 1010.9
20220525051546 56 165 0.0 0.0 0.00 0.00 0.00 98 1010.8
20220525050046 56 165 0.0 0.0 0.00 0.00 0.00 98 1010.7
20220525044546 56 165 0.0 0.0 0.00 0.00 0.00 98 1010.5
20220525043045 56 165 0.0 0.0 0.00 0.00 0.00 97 1010.4
20220525041544 56 165 0.0 0.0 0.00 0.00 0.00 97 1010.1
20220525040043 56 174 0.0 0.0 0.00 0.00 0.00 97 1010.1
20220525034547 57 174 0.0 0.0 0.00 0.00 0.00 96 1010.0
20220525033043 57 173 0.0 0.0 0.00 0.00 0.00 95 1009.8
20220525031552 58 172 0.0 0.0 0.00 0.00 0.00 95 1009.6
20220525030042 58 172 0.0 0.0 0.00 0.00 0.00 95 1009.3
20220525024541 58 169 0.0 0.0 0.00 0.00 0.00 94 1009.3
20220525023040 59 188 0.0 0.0 0.00 0.00 0.00 92 1009.2
20220525021541 59 195 0.0 0.0 0.00 0.00 0.00 89 1009.1
20220525020039 60 245 0.0 0.0 0.00 0.00 0.00 89 1009.0
20220525014545 61 198 0.0 1.0 0.00 0.00 0.00 87 1009.0
20220525013042 62 193 0.0 1.0 0.00 0.00 0.00 84 1008.9
20220525011537 64 207 0.0 1.0 0.00 0.00 0.00 82 1008.8
20220525010046 64 148 0.0 1.0 0.00 0.00 0.00 81 1008.8
20220525004537 65 204 0.0 1.0 0.00 0.00 0.00 80 1008.8
20220525003042 65 174 0.0 4.0 0.00 0.00 0.00 79 1008.8
20220525001533 66 219 0.0 1.0 0.00 0.00 0.00 78 1008.9
20220525000042 66 297 0.0 1.0 0.00 0.00 0.00 78 1009.0
20220524234530 66 308 0.0 3.0 0.00 0.00 0.00 78 1009.0
20220524233029 65 276 0.0 7.0 0.00 0.00 0.00 78 1008.9
20220524231534 65 252 0.0 7.0 0.00 0.00 0.00 79 1009.1
20220524230026 65 243 0.0 6.0 0.00 0.00 0.00 78 1009.1
20220524224526 65 271 0.0 5.0 0.00 0.00 0.00 79 1009.1
20220524223022 65 308 0.0 6.0 0.00 0.00 0.00 78 1009.3
20220524221519 66 165 0.0 5.0 0.00 0.00 0.00 79 1009.5
20220524220014 64 273 2.0 10.0 0.00 0.00 0.00 81 1009.6
20220524214513 65 292 0.0 8.0 0.00 0.00 0.00 80 1009.7
20220524213014 64 59 3.0 10.0 0.00 0.00 0.00 80 1009.8
20220524211512 65 331 0.0 9.0 0.00 0.00 0.00 80 1009.9
20220524210010 64 308 1.0 8.0 0.00 0.00 0.00 82 1010.1
20220524204509 64 320 1.0 8.0 0.00 0.00 0.00 81 1010.1
20220524203015 64 340 2.0 9.0 0.00 0.00 0.00 82 1010.2
20220524201515 63 293 1.0 8.0 0.00 0.00 0.00 83 1010.3
20220524200004 62 308 2.0 7.0 0.00 0.00 0.00 84 1010.6
20220524194502 62 304 1.0 9.0 0.00 0.00 0.00 86 1010.6
20220524193001 62 6 2.0 10.0 0.00 0.00 0.00 86 1010.8
20220524191559 61 305 1.0 8.0 0.00 0.00 0.00 88 1010.8
20220524190106 61 300 1.0 6.0 0.00 0.00 0.00 89 1011.0
20220524184600 61 348 0.0 9.0 0.00 0.00 0.00 89 1011.1
20220524183055 61 255 0.0 5.0 0.00 0.00 0.00 90 1011.0
20220524181553 60 203 0.0 4.0 0.00 0.00 0.00 91 1011.1
20220524180049 59 262 0.0 4.0 0.00 0.00 0.00 92 1011.2
20220524174548 58 255 0.0 2.0 0.00 0.00 0.00 93 1011.1
20220524173047 58 290 0.0 0.0 0.00 0.00 0.00 94 1011.0
20220524171546 58 291 0.0 4.0 0.00 0.00 0.00 94 1011.1
20220524170044 58 239 0.0 5.0 0.00 0.00 0.00 94 1011.0
20220524164542 57 260 0.0 0.0 0.00 0.00 0.00 96 1011.0
20220524163041 57 297 0.0 4.0 0.00 0.00 0.00 96 1010.9
20220524161539 57 280 0.0 4.0 0.00 0.00 0.00 96 1010.9
20220524160042 57 276 0.0 0.0 0.00 0.00 0.00 97 1010.7
20220524154539 56 284 0.0 3.0 0.00 0.00 0.00 97 1010.7
20220524153042 56 289 0.0 3.0 0.00 0.00 0.00 97 1010.7